Location: Colle Santa Colomba
(42.0333°N, 12.5667°E)
Time: 22:48:50
(UTC+00:00)

IRIDIUM 33 DEB - Visible Passes

Search period start: 10 August 2022 00:00
Search period end: 20 August 2022 00:00
Orbit: 563 x 585 km, 86.3° (Epoch: 10 August)

Date Brightness Start Highest point End Pass type
(mag) Time Alt. Az. Time Alt. Az. Time Alt. Az.
10 Aug ? 20:47:30 10° NE 20:48:29 13° NE 20:48:29 13° NE visible
10 Aug ? 22:22:39 10° NNW 22:24:41 26° NNW 22:24:41 26° NNW visible
11 Aug ? 20:50:09 10° NNE 20:51:35 15° NE 20:51:35 15° NE visible
11 Aug ? 22:25:53 10° NNW 22:27:47 23° NW 22:27:47 23° NW visible
12 Aug ? 20:52:51 10° NNE 20:54:37 18° NE 20:54:37 18° NE visible
12 Aug ? 22:29:06 10° NNW 22:30:49 20° NW 22:30:49 20° NW visible
13 Aug ? 20:55:35 10° NNE 20:57:35 22° NE 20:57:35 22° NE visible
13 Aug ? 22:32:17 10° NNW 22:33:47 17° NW 22:33:47 17° NW visible
14 Aug ? 20:58:18 10° NNE 21:00:29 25° NE 21:00:29 25° NE visible
14 Aug ? 22:35:30 10° NW 22:36:41 15° NW 22:36:41 15° NW visible
15 Aug ? 21:01:00 10° N 21:03:19 29° NNE 21:03:19 29° NNE visible
15 Aug ? 22:38:46 10° NW 22:39:30 12° WNW 22:39:30 12° WNW visible
16 Aug ? 21:03:39 10° N 21:06:06 32° NNE 21:06:06 32° NNE visible
16 Aug ? 22:42:14 10° WNW 22:42:16 10° WNW 22:42:16 10° WNW visible
17 Aug ? 21:06:17 10° N 21:08:48 35° NNE 21:08:48 35° NNE visible
18 Aug ? 21:08:52 10° N 21:11:27 37° N 21:11:27 37° N visible
19 Aug ? 21:11:24 10° N 21:14:01 37° NNW 21:14:01 37° NNW visible
